RYR285 EPWA-LIMC

Flight info

Callsign RYR285
Flight time 2h 40m
Altitude 32000
Route EVINA7G EVINA N744 TUSIN DCT MIKOV DCT OBEDI DCT DETSA/N0461F330 DCT BAKOR DCT NAXAV DCT RENTA DCT ATPED/N0394F190 M984 EVRIP EVRIP3E
Aircraft B738/M-ICOA/L

Departure

Time 2026-05-05 19:39
Airport Warsaw Chopin Airport (EPWA)

Arrival

Time 2026-05-05 22:20
Airport Milan Malpensa International Airport (LIMC)
Time Latitude Longitude Altitude Speed Heading
2026-05-05 19:13 52.17708 20.96774 340 ft 0 kts 236°
2026-05-05 19:27 52.17716 20.96790 340 ft 2 kts 218°
2026-05-05 19:27 52.17729 20.96802 341 ft 2 kts 202°
2026-05-05 19:28 52.17742 20.96808 342 ft 2 kts 185°
2026-05-05 19:28 52.17757 20.96807 342 ft 2 kts 167°
2026-05-05 19:28 52.17771 20.96798 342 ft 2 kts 149°
2026-05-05 19:28 52.17781 20.96787 342 ft 0 kts 142°
2026-05-05 19:29 52.17783 20.96785 342 ft 0 kts 143°
2026-05-05 19:32 52.17782 20.96785 342 ft 0 kts 143°
2026-05-05 19:32 52.17778 20.96790 342 ft 2 kts 143°
2026-05-05 19:32 52.17750 20.96823 342 ft 7 kts 145°
2026-05-05 19:32 52.17701 20.96879 342 ft 9 kts 146°
2026-05-05 19:33 52.17637 20.96904 340 ft 10 kts 203°
2026-05-05 19:33 52.17594 20.96810 339 ft 11 kts 241°
2026-05-05 19:33 52.17553 20.96696 337 ft 12 kts 238°
2026-05-05 19:33 52.17503 20.96576 335 ft 13 kts 228°
2026-05-05 19:34 52.17447 20.96446 333 ft 13 kts 240°
2026-05-05 19:34 52.17376 20.96409 334 ft 11 kts 153°
2026-05-05 19:34 52.17310 20.96470 334 ft 10 kts 151°
2026-05-05 19:35 52.17141 20.96616 333 ft 16 kts 152°
2026-05-05 19:35 52.17028 20.96715 331 ft 19 kts 150°
2026-05-05 19:35 52.16913 20.96815 330 ft 18 kts 153°
2026-05-05 19:35 52.16805 20.96909 332 ft 16 kts 151°
2026-05-05 19:36 52.16711 20.96992 333 ft 14 kts 152°
2026-05-05 19:36 52.16652 20.97096 335 ft 11 kts 114°
2026-05-05 19:36 52.16621 20.97205 336 ft 11 kts 115°
2026-05-05 19:36 52.16586 20.97329 336 ft 12 kts 115°
2026-05-05 19:37 52.16548 20.97464 337 ft 14 kts 114°
2026-05-05 19:37 52.16505 20.97619 337 ft 15 kts 115°
2026-05-05 19:37 52.16455 20.97794 336 ft 18 kts 114°
2026-05-05 19:37 52.16401 20.97991 335 ft 20 kts 114°
2026-05-05 19:38 52.16344 20.98193 337 ft 19 kts 115°
2026-05-05 19:38 52.16286 20.98397 336 ft 20 kts 116°
2026-05-05 19:38 52.16174 20.98431 334 ft 20 kts 210°
2026-05-05 19:38 52.16133 20.98277 333 ft 17 kts 298°
2026-05-05 19:39 52.16195 20.98062 333 ft 36 kts 295°
2026-05-05 19:39 52.16415 20.97276 337 ft 114 kts 294°
2026-05-05 19:39 52.16843 20.95755 365 ft 175 kts 295°
2026-05-05 19:39 52.17376 20.93949 1143 ft 178 kts 292°
2026-05-05 19:40 52.17886 20.92153 1953 ft 181 kts 289°
2026-05-05 19:40 52.18346 20.90275 2511 ft 183 kts 278°
2026-05-05 19:40 52.18255 20.88216 2916 ft 188 kts 249°
2026-05-05 19:40 52.17828 20.86162 3342 ft 199 kts 251°
2026-05-05 19:41 52.17461 20.83906 3773 ft 212 kts 254°
2026-05-05 19:41 52.16819 20.81687 4052 ft 230 kts 225°
2026-05-05 19:41 52.15411 20.80416 4582 ft 241 kts 195°
2026-05-05 19:41 52.13729 20.79875 5089 ft 254 kts 194°
2026-05-05 19:42 52.12014 20.79180 5842 ft 257 kts 199°
2026-05-05 19:42 52.10318 20.78259 6536 ft 259 kts 202°
2026-05-05 19:42 52.08622 20.77230 7281 ft 262 kts 203°
2026-05-05 19:42 52.06931 20.76188 8037 ft 263 kts 202°
2026-05-05 19:43 52.05229 20.75149 8779 ft 266 kts 202°
2026-05-05 19:43 52.03493 20.74104 9486 ft 268 kts 202°
2026-05-05 19:43 52.01747 20.73059 10144 ft 272 kts 202°
2026-05-05 19:43 51.99918 20.71967 10532 ft 287 kts 201°
2026-05-05 19:44 51.98023 20.70835 10891 ft 301 kts 201°
2026-05-05 19:44 51.96025 20.69644 11513 ft 307 kts 201°
2026-05-05 19:44 51.94033 20.68461 12248 ft 310 kts 201°
2026-05-05 19:44 51.91996 20.67247 12965 ft 313 kts 201°
2026-05-05 19:45 51.89974 20.66044 13691 ft 316 kts 201°
2026-05-05 19:45 51.87907 20.64819 14353 ft 321 kts 201°
2026-05-05 19:45 51.85789 20.63565 15048 ft 325 kts 201°
2026-05-05 19:45 51.83662 20.62306 15676 ft 330 kts 201°
2026-05-05 19:46 51.81500 20.61026 16351 ft 334 kts 201°
2026-05-05 19:46 51.79307 20.59729 16929 ft 340 kts 201°
2026-05-05 19:46 51.77095 20.58423 17520 ft 345 kts 201°
2026-05-05 19:46 51.74843 20.57095 18131 ft 349 kts 201°
2026-05-05 19:47 51.72530 20.55732 18730 ft 353 kts 201°
2026-05-05 19:47 51.70241 20.54385 19338 ft 356 kts 201°
2026-05-05 19:47 51.67897 20.53007 19945 ft 360 kts 201°
2026-05-05 19:47 51.65540 20.51621 20469 ft 365 kts 201°
2026-05-05 19:48 51.63157 20.50223 21054 ft 367 kts 201°
2026-05-05 19:48 51.60759 20.48818 21555 ft 372 kts 201°
2026-05-05 19:48 51.58327 20.47394 22087 ft 375 kts 201°
2026-05-05 19:48 51.55863 20.45953 22589 ft 379 kts 201°
2026-05-05 19:49 51.53385 20.44505 23097 ft 383 kts 201°
2026-05-05 19:49 51.50889 20.43049 23611 ft 385 kts 201°
2026-05-05 19:49 51.48336 20.41561 23796 ft 392 kts 201°
2026-05-05 19:49 51.45789 20.40079 23800 ft 388 kts 201°
2026-05-05 19:50 51.43282 20.38618 23802 ft 386 kts 201°
2026-05-05 19:50 51.40796 20.37033 23807 ft 388 kts 205°
2026-05-05 19:50 51.38374 20.35096 23804 ft 387 kts 211°
2026-05-05 19:50 51.36169 20.32897 23806 ft 388 kts 214°
2026-05-05 19:51 51.33979 20.30424 23807 ft 387 kts 216°
2026-05-05 19:51 51.31838 20.27860 23807 ft 386 kts 217°
2026-05-05 19:51 51.29688 20.25227 24105 ft 393 kts 218°
2026-05-05 19:51 51.27526 20.22569 24802 ft 391 kts 218°
2026-05-05 19:52 51.25363 20.19921 25240 ft 395 kts 218°
2026-05-05 19:52 51.23195 20.17282 25712 ft 398 kts 218°
2026-05-05 19:52 51.21000 20.14625 26156 ft 401 kts 218°
2026-05-05 19:52 51.18761 20.11927 26603 ft 404 kts 218°
2026-05-05 19:53 51.16514 20.09230 27082 ft 405 kts 218°
2026-05-05 19:53 51.14258 20.06527 27431 ft 410 kts 218°
2026-05-05 19:53 51.12000 20.03829 27884 ft 412 kts 218°
2026-05-05 19:53 51.09702 20.01088 28268 ft 415 kts 217°
2026-05-05 19:54 51.07393 19.98341 28640 ft 418 kts 218°
2026-05-05 19:54 51.05047 19.95558 29002 ft 422 kts 217°
2026-05-05 19:54 51.02692 19.92769 29390 ft 424 kts 217°
2026-05-05 19:54 51.00340 19.89987 29785 ft 426 kts 218°
2026-05-05 19:55 50.97971 19.87187 30126 ft 429 kts 218°
2026-05-05 19:55 50.95560 19.84341 30484 ft 432 kts 218°
2026-05-05 19:55 50.93168 19.81519 30821 ft 434 kts 218°
2026-05-05 19:55 50.90744 19.78661 31168 ft 437 kts 218°
2026-05-05 19:56 50.88347 19.75839 31492 ft 439 kts 218°
2026-05-05 19:56 50.85837 19.72889 31806 ft 441 kts 218°
2026-05-05 19:56 50.83308 19.69920 31805 ft 443 kts 218°
2026-05-05 19:57 50.78390 19.64160 31806 ft 441 kts 218°
2026-05-05 19:57 50.73439 19.58376 31799 ft 441 kts 218°
2026-05-05 19:58 50.68489 19.52606 31809 ft 440 kts 218°
2026-05-05 19:58 50.63547 19.46863 31809 ft 440 kts 218°
2026-05-05 19:59 50.58655 19.41193 31818 ft 440 kts 218°
2026-05-05 19:59 50.53728 19.35498 31820 ft 440 kts 218°
2026-05-05 20:00 50.48795 19.29810 31825 ft 440 kts 217°
2026-05-05 20:00 50.43856 19.24131 31816 ft 440 kts 217°
2026-05-05 20:01 50.38934 19.18487 31816 ft 441 kts 217°
2026-05-05 20:01 50.34038 19.12888 31817 ft 441 kts 217°
2026-05-05 20:02 50.29038 19.07183 31808 ft 441 kts 217°
2026-05-05 20:02 50.24095 19.01559 31812 ft 442 kts 217°
2026-05-05 20:03 50.19152 18.95948 31809 ft 441 kts 217°
2026-05-05 20:03 50.14176 18.90317 31809 ft 441 kts 217°
2026-05-05 20:04 50.09318 18.84833 31799 ft 440 kts 217°
2026-05-05 20:04 50.04359 18.79250 31808 ft 440 kts 217°
2026-05-05 20:05 49.99404 18.73684 31812 ft 441 kts 217°
2026-05-05 20:05 49.94433 18.68116 31811 ft 441 kts 217°
2026-05-05 20:06 49.89459 18.62561 31806 ft 440 kts 217°
2026-05-05 20:06 49.84807 18.56738 31809 ft 439 kts 225°
2026-05-05 20:07 49.80655 18.49833 31814 ft 437 kts 231°
2026-05-05 20:07 49.76772 18.42526 31801 ft 437 kts 233°
2026-05-05 20:08 49.72987 18.35210 31809 ft 437 kts 233°
2026-05-05 20:08 49.69173 18.27890 31818 ft 437 kts 232°
2026-05-05 20:09 49.65342 18.20614 31818 ft 436 kts 232°
2026-05-05 20:09 49.61515 18.13404 31816 ft 436 kts 232°
2026-05-05 20:10 49.57679 18.06212 31814 ft 436 kts 232°
2026-05-05 20:10 49.53834 17.99032 31806 ft 435 kts 232°
2026-05-05 20:11 49.49979 17.91852 31802 ft 436 kts 232°
2026-05-05 20:11 49.46094 17.84637 31795 ft 435 kts 232°
2026-05-05 20:12 49.42243 17.77504 31791 ft 435 kts 232°
2026-05-05 20:12 49.38381 17.70370 31786 ft 434 kts 232°
2026-05-05 20:13 49.34510 17.63243 31791 ft 435 kts 232°
2026-05-05 20:13 49.30625 17.56106 31787 ft 435 kts 231°
2026-05-05 20:14 49.26759 17.49025 31784 ft 435 kts 232°
2026-05-05 20:14 49.22882 17.41942 31777 ft 435 kts 232°
2026-05-05 20:15 49.19007 17.34880 31779 ft 435 kts 231°
2026-05-05 20:15 49.15138 17.27848 31779 ft 434 kts 231°
2026-05-05 20:16 49.11252 17.20805 31770 ft 434 kts 231°
2026-05-05 20:16 49.07432 17.13900 31779 ft 434 kts 231°
2026-05-05 20:17 49.03527 17.06860 31780 ft 435 kts 231°
2026-05-05 20:17 48.99619 16.99832 31773 ft 435 kts 231°
2026-05-05 20:18 48.95717 16.92835 31768 ft 435 kts 231°
2026-05-05 20:18 48.91873 16.85961 31767 ft 434 kts 231°
2026-05-05 20:19 48.87970 16.79001 31763 ft 433 kts 231°
2026-05-05 20:19 48.84083 16.72084 31763 ft 432 kts 230°
2026-05-05 20:20 48.80166 16.65131 31755 ft 433 kts 231°
2026-05-05 20:20 48.76565 16.57932 31748 ft 432 kts 237°
2026-05-05 20:21 48.73313 16.50254 31750 ft 431 kts 239°
2026-05-05 20:21 48.70169 16.42545 31738 ft 433 kts 239°
2026-05-05 20:22 48.67008 16.34862 31739 ft 433 kts 238°
2026-05-05 20:22 48.63800 16.27161 31739 ft 432 kts 237°
2026-05-05 20:23 48.60570 16.19478 31735 ft 432 kts 237°
2026-05-05 20:23 48.57400 16.11980 31734 ft 432 kts 237°
2026-05-05 20:24 48.54185 16.04409 31743 ft 430 kts 237°
2026-05-05 20:24 48.50935 15.96777 31748 ft 432 kts 237°
2026-05-05 20:25 48.47704 15.89209 31755 ft 429 kts 237°
2026-05-05 20:25 48.44476 15.81671 31754 ft 430 kts 237°
2026-05-05 20:26 48.41248 15.74157 31757 ft 429 kts 237°
2026-05-05 20:26 48.38003 15.66622 31762 ft 429 kts 237°
2026-05-05 20:27 48.34764 15.59121 31765 ft 428 kts 237°
2026-05-05 20:27 48.31524 15.51640 31770 ft 429 kts 237°
2026-05-05 20:28 48.28262 15.44128 31769 ft 428 kts 237°
2026-05-05 20:28 48.25016 15.36676 31768 ft 429 kts 237°
2026-05-05 20:29 48.21782 15.29269 31776 ft 428 kts 236°
2026-05-05 20:29 48.18520 15.21819 31782 ft 428 kts 236°
2026-05-05 20:30 48.15265 15.14406 31782 ft 427 kts 237°
2026-05-05 20:30 48.11995 15.06979 31789 ft 427 kts 237°
2026-05-05 20:31 48.08716 14.99553 31787 ft 428 kts 237°
2026-05-05 20:31 48.05503 14.92294 31801 ft 427 kts 236°
2026-05-05 20:32 48.02233 14.84928 31798 ft 427 kts 237°
2026-05-05 20:32 47.98943 14.77537 31813 ft 426 kts 237°
2026-05-05 20:33 47.95661 14.70183 31821 ft 428 kts 237°
2026-05-05 20:33 47.92376 14.62842 31833 ft 427 kts 236°
2026-05-05 20:34 47.89084 14.55506 31836 ft 427 kts 236°
2026-05-05 20:34 47.85791 14.48187 31848 ft 427 kts 236°
2026-05-05 20:35 47.82481 14.40852 31848 ft 426 kts 236°
2026-05-05 20:35 47.79192 14.33582 31855 ft 425 kts 236°
2026-05-05 20:36 47.75881 14.26281 31863 ft 425 kts 236°
2026-05-05 20:36 47.72590 14.19044 31859 ft 425 kts 236°
2026-05-05 20:37 47.69294 14.11814 31871 ft 424 kts 236°
2026-05-05 20:37 47.65984 14.04575 31871 ft 425 kts 236°
2026-05-05 20:38 47.62682 13.97374 31874 ft 424 kts 236°
2026-05-05 20:38 47.59384 13.90197 31894 ft 422 kts 236°
2026-05-05 20:39 47.56070 13.83007 31899 ft 422 kts 236°
2026-05-05 20:39 47.52743 13.75806 31899 ft 421 kts 236°
2026-05-05 20:40 47.49439 13.68672 31899 ft 420 kts 236°
2026-05-05 20:40 47.46130 13.61548 31899 ft 421 kts 236°
2026-05-05 20:41 47.42835 13.54473 31914 ft 418 kts 236°
2026-05-05 20:41 47.39511 13.47357 31910 ft 419 kts 236°
2026-05-05 20:42 47.36214 13.40310 31918 ft 418 kts 236°
2026-05-05 20:42 47.32937 13.33328 31921 ft 418 kts 234°
2026-05-05 20:43 47.29579 13.26364 31919 ft 417 kts 234°
2026-05-05 20:43 47.26174 13.19501 31934 ft 416 kts 233°
2026-05-05 20:44 47.22774 13.12673 31942 ft 415 kts 234°
2026-05-05 20:44 47.19360 13.05812 31951 ft 415 kts 234°
2026-05-05 20:45 47.14259 12.95569 31944 ft 413 kts 234°
2026-05-05 20:45 47.10876 12.88788 31933 ft 414 kts 234°
2026-05-05 20:46 47.07486 12.82011 31947 ft 411 kts 234°
2026-05-05 20:46 47.04121 12.75301 31957 ft 409 kts 234°
2026-05-05 20:47 47.00769 12.68632 31952 ft 409 kts 234°
2026-05-05 20:47 46.97402 12.61946 31956 ft 406 kts 234°
2026-05-05 20:48 46.94062 12.55335 32000 ft 405 kts 234°
2026-05-05 20:48 46.90714 12.48719 32016 ft 403 kts 234°
2026-05-05 20:49 46.87385 12.42158 32007 ft 401 kts 234°
2026-05-05 20:49 46.84106 12.35714 32005 ft 399 kts 234°
2026-05-05 20:50 46.80838 12.29176 32002 ft 400 kts 237°
2026-05-05 20:50 46.78087 12.22218 32004 ft 397 kts 242°
2026-05-05 20:51 46.75586 12.15001 32006 ft 396 kts 243°
2026-05-05 20:51 46.73137 12.07852 32012 ft 396 kts 243°
2026-05-05 20:52 46.70676 12.00739 32014 ft 392 kts 243°
2026-05-05 20:52 46.68208 11.93668 32015 ft 392 kts 242°
2026-05-05 20:53 46.65714 11.86568 32012 ft 392 kts 243°
2026-05-05 20:53 46.63250 11.79578 32009 ft 390 kts 243°
2026-05-05 20:54 46.60768 11.72555 32000 ft 391 kts 243°
2026-05-05 20:54 46.58261 11.65488 31998 ft 392 kts 242°
2026-05-05 20:55 46.55780 11.58505 31997 ft 390 kts 243°
2026-05-05 20:55 46.53298 11.51539 31995 ft 389 kts 242°
2026-05-05 20:56 46.50785 11.44511 31986 ft 392 kts 242°
2026-05-05 20:56 46.48294 11.37570 31973 ft 386 kts 242°
2026-05-05 20:57 46.45797 11.30609 31974 ft 389 kts 242°
2026-05-05 20:57 46.43383 11.23628 31973 ft 386 kts 242°
2026-05-05 20:58 46.41010 11.16667 31983 ft 385 kts 243°
2026-05-05 20:58 46.38634 11.09731 32001 ft 385 kts 243°
2026-05-05 20:59 46.36246 11.02796 32004 ft 385 kts 242°
2026-05-05 20:59 46.33829 10.95818 32004 ft 385 kts 243°
2026-05-05 21:00 46.31429 10.88918 32004 ft 387 kts 243°
2026-05-05 21:00 46.29020 10.81989 31997 ft 383 kts 242°
2026-05-05 21:01 46.26640 10.75133 31997 ft 382 kts 242°
2026-05-05 21:01 46.24253 10.68274 31996 ft 381 kts 243°
2026-05-05 21:02 46.21872 10.61458 31990 ft 381 kts 243°
2026-05-05 21:02 46.19486 10.54645 31997 ft 380 kts 243°
2026-05-05 21:03 46.17102 10.47856 32000 ft 380 kts 242°
2026-05-05 21:03 46.14687 10.40981 32002 ft 381 kts 243°
2026-05-05 21:04 46.12393 10.34250 32008 ft 377 kts 242°
2026-05-05 21:04 46.10095 10.27441 31814 ft 377 kts 242°
2026-05-05 21:05 46.08950 10.24060 31193 ft 378 kts 243°
2026-05-05 21:05 46.07791 10.20651 31017 ft 384 kts 242°
2026-05-05 21:05 46.05386 10.13611 31012 ft 395 kts 242°
2026-05-05 21:06 46.02950 10.06505 31006 ft 397 kts 242°
2026-05-05 21:06 46.00505 9.99389 30998 ft 394 kts 243°
2026-05-05 21:07 45.98071 9.92326 31008 ft 397 kts 242°
2026-05-05 21:07 45.95613 9.85218 31024 ft 398 kts 242°
2026-05-05 21:08 45.93168 9.78159 31011 ft 395 kts 242°
2026-05-05 21:08 45.90723 9.71114 31009 ft 394 kts 242°
2026-05-05 21:09 45.88277 9.64086 31001 ft 394 kts 242°
2026-05-05 21:09 45.85837 9.57108 31004 ft 392 kts 242°
2026-05-05 21:10 45.83416 9.50137 31000 ft 389 kts 243°
2026-05-05 21:10 45.81024 9.43166 30997 ft 392 kts 243°
2026-05-05 21:11 45.78653 9.36269 30988 ft 376 kts 243°
2026-05-05 21:11 45.77517 9.32970 30991 ft 359 kts 242°
2026-05-05 21:11 45.76435 9.29827 30988 ft 343 kts 242°
2026-05-05 21:12 45.75413 9.26863 30987 ft 329 kts 242°
2026-05-05 21:12 45.74201 9.24113 30993 ft 325 kts 227°
2026-05-05 21:12 45.72313 9.22285 30997 ft 341 kts 205°
2026-05-05 21:12 45.69952 9.21674 30987 ft 356 kts 186°
2026-05-05 21:13 45.67479 9.22348 30983 ft 373 kts 167°
2026-05-05 21:13 45.65183 9.24190 30988 ft 392 kts 151°
2026-05-05 21:13 45.63280 9.27164 30977 ft 417 kts 129°
2026-05-05 21:13 45.62216 9.31100 30984 ft 440 kts 106°
2026-05-05 21:14 45.62183 9.35495 30988 ft 458 kts 83°
2026-05-05 21:14 45.63255 9.39852 30985 ft 464 kts 60°
2026-05-05 21:14 45.65277 9.43395 30986 ft 463 kts 37°
2026-05-05 21:14 45.67931 9.45721 30981 ft 440 kts 14°
2026-05-05 21:15 45.70781 9.46994 30985 ft 420 kts 12°
2026-05-05 21:15 45.73360 9.48859 30983 ft 414 kts 33°
2026-05-05 21:15 45.75591 9.51258 30988 ft 398 kts 26°
2026-05-05 21:15 45.78062 9.52735 30996 ft 379 kts
2026-05-05 21:16 45.80618 9.52803 30949 ft 357 kts 338°
2026-05-05 21:16 45.82901 9.51780 30549 ft 336 kts 321°
2026-05-05 21:16 45.84776 9.50028 30440 ft 313 kts 307°
2026-05-05 21:16 45.86301 9.47836 30438 ft 309 kts 296°
2026-05-05 21:17 45.87359 9.45214 30436 ft 303 kts 281°
2026-05-05 21:17 45.87860 9.42271 30274 ft 308 kts 270°
2026-05-05 21:17 45.87975 9.39169 29619 ft 317 kts 261°
2026-05-05 21:17 45.87642 9.36101 28982 ft 314 kts 250°
2026-05-05 21:18 45.86790 9.33264 28496 ft 307 kts 234°
2026-05-05 21:18 45.85333 9.31094 28235 ft 299 kts 218°
2026-05-05 21:18 45.83635 9.29496 27983 ft 294 kts 213°
2026-05-05 21:18 45.81849 9.28079 27723 ft 294 kts 210°
2026-05-05 21:19 45.79998 9.26804 27461 ft 297 kts 208°
2026-05-05 21:19 45.78077 9.25695 27196 ft 299 kts 201°
2026-05-05 21:19 45.76033 9.25107 26933 ft 302 kts 190°
2026-05-05 21:19 45.73907 9.25111 26667 ft 308 kts 181°
2026-05-05 21:20 45.71764 9.25587 26403 ft 312 kts 174°
2026-05-05 21:20 45.69679 9.26448 26143 ft 317 kts 166°
2026-05-05 21:20 45.67704 9.27860 25975 ft 324 kts 155°
2026-05-05 21:20 45.65879 9.29864 25974 ft 333 kts 146°
2026-05-05 21:21 45.64258 9.32233 25970 ft 342 kts 138°
2026-05-05 21:21 45.62785 9.34919 25973 ft 344 kts 134°
2026-05-05 21:21 45.61373 9.37668 25970 ft 345 kts 134°
2026-05-05 21:21 45.59966 9.40435 25964 ft 341 kts 134°
2026-05-05 21:22 45.58611 9.43101 25970 ft 330 kts 134°
2026-05-05 21:22 45.57265 9.45724 25979 ft 328 kts 135°
2026-05-05 21:22 45.55902 9.48367 25968 ft 331 kts 133°
2026-05-05 21:22 45.54676 9.51181 25973 ft 340 kts 124°
2026-05-05 21:23 45.53840 9.54329 25973 ft 351 kts 110°
2026-05-05 21:23 45.53472 9.57818 25970 ft 361 kts 98°
2026-05-05 21:23 45.53527 9.61432 25972 ft 365 kts 89°
2026-05-05 21:23 45.53985 9.65003 25978 ft 370 kts 76°
2026-05-05 21:24 45.54996 9.68374 25971 ft 376 kts 62°
2026-05-05 21:24 45.56522 9.71426 25980 ft 378 kts 50°
2026-05-05 21:24 45.58340 9.74087 25970 ft 376 kts 40°
2026-05-05 21:24 45.60491 9.76198 25970 ft 374 kts 24°
2026-05-05 21:25 45.62878 9.77497 25982 ft 371 kts 10°
2026-05-05 21:25 45.65398 9.78165 25975 ft 366 kts
2026-05-05 21:25 45.67909 9.78308 25976 ft 359 kts 349°
2026-05-05 21:25 45.70347 9.77659 25984 ft 348 kts 334°
2026-05-05 21:26 45.72538 9.76350 25991 ft 340 kts 324°
2026-05-05 21:26 45.74535 9.74663 25980 ft 334 kts 316°
2026-05-05 21:26 45.76305 9.72566 25991 ft 324 kts 304°
2026-05-05 21:26 45.77690 9.70110 25991 ft 316 kts 297°
2026-05-05 21:27 45.78988 9.67548 25990 ft 318 kts 298°
2026-05-05 21:27 45.80298 9.65015 25985 ft 317 kts 298°
2026-05-05 21:27 45.81625 9.62481 25997 ft 318 kts 298°
2026-05-05 21:27 45.82949 9.59952 25999 ft 317 kts 298°
2026-05-05 21:28 45.84255 9.57453 25992 ft 319 kts 298°
2026-05-05 21:28 45.85569 9.54890 26000 ft 316 kts 296°
2026-05-05 21:28 45.86649 9.52235 25995 ft 305 kts 285°
2026-05-05 21:28 45.87268 9.49358 25991 ft 295 kts 272°
2026-05-05 21:29 45.87445 9.46478 25992 ft 290 kts 264°
2026-05-05 21:29 45.87344 9.43619 25984 ft 286 kts 257°
2026-05-05 21:29 45.86888 9.40889 25989 ft 281 kts 245°
2026-05-05 21:29 45.86047 9.38379 25993 ft 280 kts 237°
2026-05-05 21:30 45.84951 9.36078 25988 ft 276 kts 230°
2026-05-05 21:30 45.83627 9.34084 25985 ft 275 kts 220°
2026-05-05 21:30 45.82068 9.32548 25983 ft 277 kts 211°
2026-05-05 21:30 45.80300 9.31358 25981 ft 281 kts 204°
2026-05-05 21:31 45.78416 9.30571 25981 ft 283 kts 194°
2026-05-05 21:31 45.76454 9.30364 25983 ft 288 kts 184°
2026-05-05 21:31 45.74453 9.30666 25987 ft 293 kts 176°
2026-05-05 21:31 45.72442 9.31439 25987 ft 303 kts 166°
2026-05-05 21:32 45.70540 9.32844 25869 ft 315 kts 154°
2026-05-05 21:32 45.68849 9.34834 25602 ft 324 kts 143°
2026-05-05 21:32 45.67367 9.37292 25346 ft 325 kts 136°
2026-05-05 21:32 45.66016 9.39878 25083 ft 322 kts 134°
2026-05-05 21:33 45.64706 9.42440 24820 ft 321 kts 134°
2026-05-05 21:33 45.63401 9.44986 24550 ft 319 kts 134°
2026-05-05 21:33 45.62082 9.47539 24283 ft 318 kts 135°
2026-05-05 21:33 45.60784 9.50088 24027 ft 319 kts 131°
2026-05-05 21:34 45.59710 9.52836 23983 ft 322 kts 120°
2026-05-05 21:34 45.59092 9.55978 23982 ft 336 kts 104°
2026-05-05 21:34 45.58997 9.59326 23984 ft 346 kts 92°
2026-05-05 21:34 45.59341 9.62748 23980 ft 350 kts 80°
2026-05-05 21:35 45.60194 9.66025 23982 ft 359 kts 64°
2026-05-05 21:35 45.61650 9.68929 23986 ft 361 kts 47°
2026-05-05 21:35 45.63530 9.71356 23980 ft 363 kts 36°
2026-05-05 21:35 45.65668 9.73208 23982 ft 361 kts 20°
2026-05-05 21:36 45.68064 9.74176 23990 ft 356 kts
2026-05-05 21:36 45.70495 9.74291 23955 ft 349 kts 351°
2026-05-05 21:36 45.72872 9.73840 23734 ft 341 kts 339°
2026-05-05 21:36 45.75052 9.72648 23470 ft 332 kts 323°
2026-05-05 21:37 45.76903 9.70772 23227 ft 321 kts 310°
2026-05-05 21:37 45.78454 9.68562 23003 ft 311 kts 302°
2026-05-05 21:37 45.79785 9.66193 22997 ft 307 kts 299°
2026-05-05 21:37 45.81065 9.63729 22994 ft 310 kts 298°
2026-05-05 21:38 45.82330 9.61252 22996 ft 308 kts 298°
2026-05-05 21:38 45.83592 9.58787 23000 ft 309 kts 298°
2026-05-05 21:38 45.84879 9.56287 22999 ft 308 kts 298°
2026-05-05 21:38 45.86069 9.53787 22999 ft 305 kts 291°
2026-05-05 21:39 45.86888 9.51055 23006 ft 294 kts 277°
2026-05-05 21:39 45.87189 9.48177 23000 ft 286 kts 265°
2026-05-05 21:39 45.87135 9.45369 22994 ft 283 kts 258°
2026-05-05 21:39 45.86741 9.42633 22990 ft 275 kts 246°
2026-05-05 21:40 45.85923 9.40198 22999 ft 272 kts 234°
2026-05-05 21:40 45.84826 9.38034 22994 ft 271 kts 228°
2026-05-05 21:40 45.83490 9.36126 22998 ft 269 kts 217°
2026-05-05 21:40 45.81895 9.34720 22999 ft 269 kts 206°
2026-05-05 21:41 45.80151 9.33779 22984 ft 272 kts 198°
2026-05-05 21:41 45.78295 9.33236 22979 ft 275 kts 188°
2026-05-05 21:41 45.76364 9.33307 22982 ft 282 kts 176°
2026-05-05 21:41 45.74446 9.33956 22978 ft 286 kts 167°
2026-05-05 21:42 45.72600 9.35092 22975 ft 291 kts 156°
2026-05-05 21:42 45.70953 9.36826 22979 ft 302 kts 143°
2026-05-05 21:42 45.69558 9.39125 22972 ft 310 kts 134°
2026-05-05 21:42 45.68269 9.41634 22975 ft 311 kts 134°
2026-05-05 21:43 45.67000 9.44106 22976 ft 310 kts 134°
2026-05-05 21:43 45.65718 9.46575 22970 ft 308 kts 134°
2026-05-05 21:43 45.64449 9.49006 22980 ft 309 kts 134°
2026-05-05 21:43 45.63214 9.51527 22976 ft 312 kts 128°
2026-05-05 21:44 45.62296 9.54367 22976 ft 325 kts 112°
2026-05-05 21:44 45.61952 9.57621 22972 ft 336 kts 95°
2026-05-05 21:44 45.62182 9.60941 22981 ft 343 kts 83°
2026-05-05 21:44 45.62861 9.64238 22974 ft 350 kts 70°
2026-05-05 21:45 45.64149 9.67213 22979 ft 355 kts 50°
2026-05-05 21:45 45.66002 9.69542 22979 ft 356 kts 33°
2026-05-05 21:45 45.68157 9.71247 22977 ft 356 kts 21°
2026-05-05 21:45 45.70485 9.72217 22974 ft 350 kts
2026-05-05 21:46 45.72881 9.72151 22978 ft 341 kts 343°
2026-05-05 21:46 45.75138 9.71262 22978 ft 334 kts 332°
2026-05-05 21:46 45.77237 9.69827 22975 ft 326 kts 319°
2026-05-05 21:46 45.78889 9.67796 22983 ft 312 kts 302°
2026-05-05 21:47 45.80173 9.65297 22977 ft 309 kts 297°
2026-05-05 21:47 45.81414 9.62821 22979 ft 309 kts 298°
2026-05-05 21:47 45.82704 9.60343 22980 ft 309 kts 299°
2026-05-05 21:47 45.84000 9.57884 22983 ft 309 kts 299°
2026-05-05 21:48 45.85281 9.55434 22988 ft 310 kts 297°
2026-05-05 21:48 45.86427 9.52837 22987 ft 302 kts 288°
2026-05-05 21:48 45.87086 9.50051 22989 ft 293 kts 273°
2026-05-05 21:48 45.87226 9.47204 22985 ft 285 kts 262°
2026-05-05 21:49 45.87034 9.44407 22974 ft 279 kts 255°
2026-05-05 21:49 45.86533 9.41726 22840 ft 277 kts 243°
2026-05-05 21:49 45.85624 9.39360 22614 ft 272 kts 232°
2026-05-05 21:49 45.84402 9.37312 22354 ft 267 kts 224°
2026-05-05 21:50 45.83028 9.35588 22110 ft 265 kts 216°
2026-05-05 21:50 45.81424 9.34294 21982 ft 265 kts 203°
2026-05-05 21:50 45.79664 9.33508 21977 ft 269 kts 195°
2026-05-05 21:50 45.77777 9.33102 21973 ft 273 kts 186°
2026-05-05 21:51 45.75891 9.33271 21976 ft 278 kts 174°
2026-05-05 21:51 45.74013 9.34045 21949 ft 284 kts 165°
2026-05-05 21:51 45.72194 9.35291 21570 ft 295 kts 154°
2026-05-05 21:51 45.70578 9.37112 21187 ft 302 kts 141°
2026-05-05 21:52 45.68014 9.41943 20410 ft 304 kts 133°
2026-05-05 21:52 45.66768 9.44367 20039 ft 303 kts 133°
2026-05-05 21:52 45.65532 9.46732 19661 ft 301 kts 133°
2026-05-05 21:53 45.64272 9.49136 19289 ft 299 kts 133°
2026-05-05 21:53 45.63096 9.51545 19179 ft 294 kts 127°
2026-05-05 21:53 45.62203 9.54221 19029 ft 307 kts 112°
2026-05-05 21:53 45.61947 9.57250 18971 ft 317 kts 86°
2026-05-05 21:54 45.62638 9.60268 18986 ft 329 kts 61°
2026-05-05 21:54 45.64022 9.62901 18979 ft 330 kts 47°
2026-05-05 21:54 45.65673 9.65144 18974 ft 330 kts 39°
2026-05-05 21:54 45.67527 9.67098 18976 ft 329 kts 33°
2026-05-05 21:55 45.69463 9.68779 18973 ft 328 kts 23°
2026-05-05 21:55 45.71612 9.69724 18978 ft 322 kts
2026-05-05 21:55 45.73853 9.69685 18978 ft 316 kts 346°
2026-05-05 21:55 45.75959 9.68956 18972 ft 311 kts 335°
2026-05-05 21:56 45.77949 9.67807 18983 ft 305 kts 325°
2026-05-05 21:56 45.79625 9.66094 18982 ft 294 kts 308°
2026-05-05 21:56 45.80909 9.63897 18979 ft 286 kts 298°
2026-05-05 21:56 45.82075 9.61544 18983 ft 289 kts 300°
2026-05-05 21:57 45.83266 9.59251 18987 ft 288 kts 301°
2026-05-05 21:57 45.84477 9.56968 18986 ft 289 kts 301°
2026-05-05 21:57 45.85653 9.54661 18985 ft 287 kts 296°
2026-05-05 21:57 45.86481 9.52133 18983 ft 276 kts 277°
2026-05-05 21:58 45.86581 9.49434 18988 ft 267 kts 257°
2026-05-05 21:58 45.86104 9.46899 18985 ft 263 kts 246°
2026-05-05 21:58 45.85283 9.44580 18974 ft 261 kts 233°
2026-05-05 21:58 45.83991 9.42757 18976 ft 261 kts 214°
2026-05-05 21:59 45.82377 9.41633 18979 ft 262 kts 201°
2026-05-05 21:59 45.80591 9.41037 18983 ft 266 kts 188°
2026-05-05 21:59 45.78748 9.41262 18977 ft 274 kts 169°
2026-05-05 21:59 45.76967 9.42421 18978 ft 282 kts 153°
2026-05-05 22:00 45.75433 9.44203 18987 ft 290 kts 139°
2026-05-05 22:00 45.74156 9.46472 18989 ft 296 kts 134°
2026-05-05 22:00 45.72952 9.48863 18744 ft 297 kts 132°
2026-05-05 22:00 45.71772 9.51253 18490 ft 293 kts 132°
2026-05-05 22:01 45.70662 9.53693 18232 ft 295 kts 124°
2026-05-05 22:01 45.69949 9.56469 17977 ft 306 kts 103°
2026-05-05 22:01 45.70031 9.59565 17715 ft 315 kts 78°
2026-05-05 22:01 45.70899 9.62417 17474 ft 317 kts 58°
2026-05-05 22:02 45.72308 9.64851 17227 ft 317 kts 40°
2026-05-05 22:02 45.74162 9.66387 16972 ft 312 kts 14°
2026-05-05 22:02 45.76274 9.66756 16717 ft 306 kts 349°
2026-05-05 22:02 45.78334 9.65828 16492 ft 317 kts 323°
2026-05-05 22:03 45.79955 9.63739 16225 ft 314 kts 301°
2026-05-05 22:03 45.80974 9.61055 15981 ft 307 kts 286°
2026-05-05 22:03 45.81392 9.58109 15716 ft 296 kts 265°
2026-05-05 22:03 45.80972 9.55303 15468 ft 290 kts 244°
2026-05-05 22:04 45.79992 9.52801 15226 ft 289 kts 236°
2026-05-05 22:04 45.78860 9.50415 14974 ft 288 kts 234°
2026-05-05 22:04 45.77702 9.48072 14734 ft 286 kts 234°
2026-05-05 22:04 45.76567 9.45790 14483 ft 285 kts 234°
2026-05-05 22:05 45.75411 9.43473 14226 ft 287 kts 234°
2026-05-05 22:05 45.74204 9.41201 13984 ft 287 kts 231°
2026-05-05 22:05 45.72926 9.39015 13739 ft 286 kts 229°
2026-05-05 22:05 45.71639 9.36873 13499 ft 286 kts 229°
2026-05-05 22:06 45.70340 9.34720 13241 ft 285 kts 229°
2026-05-05 22:06 45.69041 9.32572 12977 ft 283 kts 228°
2026-05-05 22:06 45.67761 9.30452 12707 ft 285 kts 228°
2026-05-05 22:06 45.66464 9.28299 12249 ft 286 kts 228°
2026-05-05 22:07 45.65186 9.26169 11855 ft 285 kts 228°
2026-05-05 22:07 45.63900 9.24027 11476 ft 282 kts 228°
2026-05-05 22:07 45.62638 9.21926 11112 ft 280 kts 229°
2026-05-05 22:07 45.61365 9.19808 10741 ft 278 kts 228°
2026-05-05 22:08 45.60124 9.17742 10371 ft 276 kts 228°
2026-05-05 22:08 45.58889 9.15681 10038 ft 273 kts 228°
2026-05-05 22:08 45.57686 9.13656 9868 ft 263 kts 228°
2026-05-05 22:08 45.56511 9.11660 9492 ft 263 kts 229°
2026-05-05 22:09 45.55337 9.09668 9149 ft 261 kts 228°
2026-05-05 22:09 45.54160 9.07674 8809 ft 260 kts 228°
2026-05-05 22:09 45.53016 9.05732 8480 ft 258 kts 229°
2026-05-05 22:09 45.51871 9.03781 8148 ft 256 kts 229°
2026-05-05 22:10 45.50739 9.01850 7823 ft 255 kts 229°
2026-05-05 22:10 45.49604 8.99918 7496 ft 253 kts 229°
2026-05-05 22:10 45.48467 8.97981 7175 ft 259 kts 229°
2026-05-05 22:10 45.47297 8.95994 6828 ft 259 kts 227°
2026-05-05 22:11 45.45929 8.94410 6513 ft 254 kts 205°
2026-05-05 22:11 45.44302 8.93590 6349 ft 248 kts 195°
2026-05-05 22:11 45.42586 8.92957 6218 ft 255 kts 194°
2026-05-05 22:11 45.40888 8.92362 6085 ft 247 kts 192°
2026-05-05 22:12 45.39235 8.92345 6014 ft 234 kts 162°
2026-05-05 22:12 45.37877 8.93484 5920 ft 226 kts 143°
2026-05-05 22:12 45.36532 8.94591 5910 ft 230 kts 166°
2026-05-05 22:12 45.34943 8.94652 5840 ft 234 kts 195°
2026-05-05 22:13 45.33541 8.93531 5447 ft 236 kts 229°
2026-05-05 22:13 45.32901 8.91418 5051 ft 238 kts 267°
2026-05-05 22:13 45.33316 8.89146 4686 ft 242 kts 300°
2026-05-05 22:13 45.34309 8.87242 4461 ft 243 kts 311°
2026-05-05 22:14 45.35475 8.85518 4218 ft 243 kts 314°
2026-05-05 22:14 45.36682 8.83859 3990 ft 239 kts 320°
2026-05-05 22:14 45.38016 8.82544 3985 ft 229 kts 334°
2026-05-05 22:14 45.39465 8.81630 3996 ft 221 kts 335°
2026-05-05 22:15 45.40786 8.80696 3987 ft 207 kts 332°
2026-05-05 22:15 45.42038 8.79740 3989 ft 202 kts 332°
2026-05-05 22:15 45.43319 8.78880 3996 ft 201 kts 341°
2026-05-05 22:15 45.44621 8.78388 3983 ft 185 kts 349°
2026-05-05 22:16 45.45863 8.78048 3906 ft 183 kts 350°
2026-05-05 22:16 45.47111 8.77716 3645 ft 184 kts 351°
2026-05-05 22:16 45.48359 8.77376 3391 ft 182 kts 351°
2026-05-05 22:16 45.49597 8.77035 3136 ft 180 kts 350°
2026-05-05 22:17 45.50816 8.76699 2887 ft 177 kts 351°
2026-05-05 22:17 45.52011 8.76371 2656 ft 171 kts 351°
2026-05-05 22:17 45.53149 8.76059 2416 ft 161 kts 350°
2026-05-05 22:17 45.54196 8.75772 2204 ft 152 kts 350°
2026-05-05 22:18 45.55197 8.75499 1987 ft 143 kts 350°
2026-05-05 22:18 45.56187 8.75228 1818 ft 144 kts 350°
2026-05-05 22:18 45.57162 8.74961 1575 ft 143 kts 350°
2026-05-05 22:18 45.58144 8.74701 1429 ft 140 kts 349°
2026-05-05 22:19 45.59096 8.74430 1241 ft 142 kts 349°
2026-05-05 22:19 45.60070 8.74156 1039 ft 141 kts 349°
2026-05-05 22:19 45.61024 8.73899 859 ft 139 kts 351°
2026-05-05 22:19 45.61979 8.73636 706 ft 131 kts 349°
2026-05-05 22:20 45.62624 8.73461 716 ft 59 kts 349°
2026-05-05 22:20 45.62994 8.73354 723 ft 50 kts 345°
2026-05-05 22:20 45.63254 8.73091 732 ft 42 kts 304°
2026-05-05 22:20 45.63360 8.72861 737 ft 17 kts 304°
2026-05-05 22:21 45.63425 8.72726 739 ft 14 kts 280°
2026-05-05 22:21 45.63404 8.72584 741 ft 16 kts 258°
2026-05-05 22:21 45.63378 8.72392 743 ft 22 kts 258°
2026-05-05 22:21 45.63351 8.72215 745 ft 17 kts 260°
2026-05-05 22:22 45.63326 8.72014 749 ft 25 kts 260°
2026-05-05 22:22 45.63291 8.71770 749 ft 17 kts 257°
2026-05-05 22:22 45.63233 8.71668 748 ft 13 kts 202°
2026-05-05 22:22 45.63189 8.71579 745 ft 8 kts 237°
2026-05-05 22:23 45.63174 8.71547 744 ft 1 kts 235°
2026-05-05 22:23 45.63171 8.71542 744 ft 0 kts 235°